TimePDT,TemperatureF,Dew PointF,Humidity,Sea Level PressureIn,VisibilityMPH,Wind Direction,Wind SpeedMPH,Gust SpeedMPH,PrecipitationIn,Events,Conditions,WindDirDegrees,DateUTC
12:56 AM,54.0,1.9,12,30.22,10.0,NE,6.9,-,N/A,,Clear,50,2011-11-02 07:56:00
1:56 AM,54.0,3.9,13,30.25,9.0,NNE,4.6,-,N/A,,Clear,30,2011-11-02 08:56:00
2:56 AM,50.0,12.9,23,30.28,10.0,South,4.6,-,N/A,,Partly Cloudy,170,2011-11-02 09:56:00
3:56 AM,52.0,5.0,15,30.30,10.0,NNE,3.5,-,N/A,,Partly Cloudy,30,2011-11-02 10:56:00
4:56 AM,51.8,8.6,18,30.35,10.0,North,9.2,-,N/A,,Partly Cloudy,360,2011-11-02 11:56:00
5:56 AM,50.0,9.0,19,30.35,10.0,NE,3.5,-,N/A,,Partly Cloudy,40,2011-11-02 12:56:00
6:56 AM,48.0,7.0,19,30.36,10.0,North,6.9,-,N/A,,Clear,350,2011-11-02 13:56:00
7:56 AM,51.1,7.0,17,30.39,10.0,North,5.8,-,N/A,,Clear,360,2011-11-02 14:56:00
8:56 AM,53.1,8.1,16,30.39,10.0,North,6.9,-,N/A,,Clear,10,2011-11-02 15:56:00
9:56 AM,55.0,9.0,16,30.39,10.0,NE,17.3,26.5,N/A,,Clear,40,2011-11-02 16:56:00
10:56 AM,57.0,8.1,14,30.38,10.0,NNE,16.1,21.9,N/A,,Clear,30,2011-11-02 17:56:00
11:56 AM,57.0,8.1,14,30.35,10.0,NE,16.1,-,N/A,,Clear,40,2011-11-02 18:56:00
12:56 PM,60.1,7.0,12,30.31,10.0,NE,13.8,-,N/A,,Clear,40,2011-11-02 19:56:00
1:56 PM,61.0,7.0,12,30.27,10.0,NE,13.8,21.9,N/A,,Clear,40,2011-11-02 20:56:00
2:56 PM,60.8,5.0,11,30.26,10.0,NNE,11.5,-,N/A,,Clear,30,2011-11-02 21:56:00
3:56 PM,62.1,5.0,10,30.22,10.0,ENE,12.7,-,N/A,,Clear,60,2011-11-02 22:56:00
4:56 PM,61.0,3.9,10,30.22,10.0,ENE,5.8,-,N/A,,Clear,60,2011-11-02 23:56:00
5:56 PM,59.0,5.0,12,30.21,10.0,NE,5.8,-,N/A,,Clear,40,2011-11-03 00:56:00
6:56 PM,57.9,5.0,12,30.20,10.0,Calm,Calm,-,N/A,,Clear,0,2011-11-03 01:56:00
7:56 PM,57.0,3.9,12,30.19,10.0,Calm,Calm,-,N/A,,Clear,0,2011-11-03 02:56:00
8:56 PM,54.0,8.1,16,30.19,10.0,SSW,6.9,-,N/A,,Clear,210,2011-11-03 03:56:00
9:56 PM,52.0,9.0,18,30.19,10.0,SW,5.8,-,N/A,,Clear,230,2011-11-03 04:56:00
10:56 PM,51.1,10.0,19,30.17,10.0,SW,6.9,-,N/A,,Clear,220,2011-11-03 05:56:00
11:56 PM,48.9,6.1,18,30.17,10.0,SSW,9.2,-,N/A,,Clear,200,2011-11-03 06:56:00